CHUBUSAT-1
1 40300U 14070C 21055.96811773 .00001418 00000-0 62951-4 0 9995
2 40300 97.2567 123.1908 0020974 46.7715 125.5348 15.22965596349937
QSAT-EOS
1 40301U 14070D 21056.78941288 .00003721 00000-0 13736-3 0 9997
2 40301 97.2665 131.2314 0024612 14.4761 81.0615 15.28094527350606
FIREBIRD FU3
1 40377U 15003B 21056.59438247 .00007189 00000-0 26600-3 0 9998
2 40377 99.0831 174.6033 0119937 187.2482 172.7019 15.21537282335777
FIREBIRD FU4
1 40378U 15003C 21056.77165227 .00006566 00000-0 24295-3 0 9990
2 40378 99.0835 174.9402 0120048 186.4803 173.4882 15.21581597335817
GRIFEX
1 40379U 15003D 21056.52759289 .00004236 00000-0 17478-3 0 9998
2 40379 99.0823 164.9000 0129528 217.4607 141.7541 15.17427912335205
NO-84
1 40654U 15025D 21056.42673815 .00041318 00000-0 35219-3 0 2018
2 40654 54.9805 207.9324 0095115 128.2074 232.7681 15.63368221208459
DEORBITSAIL
1 40719U 15032E 21056.51325506 .00000617 00000-0 93981-4 0 9991
2 40719 97.8433 304.5193 0017510 107.7512 252.5611 14.77247295303454
NUDT-PHONESAT
1 40900U 15049B 21056.84860334 .00004765 00000-0 19019-3 0 9997
2 40900 97.4260 71.7302 0012792 164.4938 318.0198 15.25575706301804
XW-2A
1 40903U 15049E 21056.83714859 .00004540 00000-0 99622-4 0 9999
2 40903 97.2537 111.6215 0014252 66.4169 46.6748 15.44467336305561
XW-2C
1 40906U 15049H 21056.80094014 .00001441 00000-0 77298-4 0 9995
2 40906 97.4842 60.5737 0013674 209.5926 274.4448 15.16506966300648
XW-2D
1 40907U 15049J 21056.81015686 .00001412 00000-0 75187-4 0 9998
2 40907 97.4839 60.3423 0013049 205.6438 236.8381 15.16794863300672
LILACSAT-2
1 40908U 15049K 21056.81259792 .00000639 00000-0 38465-4 0 9995
2 40908 97.5014 58.3487 0014542 221.5290 220.4578 15.14299570300331
XW-2E
1 40909U 15049L 21056.81019775 .00002156 00000-0 10570-3 0 9993
2 40909 97.4668 64.2071 0012860 192.1676 252.8337 15.19141791300982
XW-2F
1 40910U 15049M 21056.84937795 .00002084 00000-0 10369-3 0 9995
2 40910 97.4727 63.3194 0014211 192.0053 288.3627 15.18646022300786
XW-2B
1 40911U 15049N 21056.80593118 .00001488 00000-0 79218-4 0 9995
2 40911 97.4839 61.0326 0012873 206.7457 230.3131 15.16715407300561
DCBB
1 40912U 15049P 21056.82670208 .00002391 00000-0 11029-3 0 9993
2 40912 97.4485 67.6362 0015025 166.3926 276.3048 15.21130697301224
TW-1C
1 40926U 15051B 21056.44064455 .02633745 22183-5 13669-2 0 9997
2 40926 97.0252 119.3435 0005041 251.4174 119.2932 16.20330625306899
TW-1A
1 40928U 15051D 21056.89917906 .00006928 00000-0 15039-3 0 9994
2 40928 97.0887 84.5051 0009294 353.4438 128.5488 15.44640043304465
IO-86
1 40931U 15052B 21055.27845257 .00000684 00000-0 61789-5 0 9997
2 40931 5.9997 339.5905 0012385 244.9960 114.8756 14.76663331292549
LQSat
1 40958U 15057A 21056.81251714 .00000011 00000-0 91778-5 0 9996
2 40958 97.8191 117.4572 0019455 58.2209 302.0885 14.73156922289803
ATHENOXAT-1
1 41168U 15077C 21056.52300597 .00003201 00000-0 12898-3 0 9992
2 41168 14.9901 3.6697 0011596 54.9212 90.7317 15.15225699287775
ChubuSat-2
1 41338U 16012B 21056.70964964 .00000555 00000-0 36276-4 0 9991
2 41338 31.0025 176.4274 0013532 105.9381 254.2746 15.00449153275808
ChubuSat-3
1 41339U 16012C 21056.67734198 .00000561 00000-0 36641-4 0 9995
2 41339 31.0104 173.9770 0013192 112.5485 247.6541 15.00603666275799
Horyu-4
1 41340U 16012D 21056.49561802 .00000923 00000-0 62515-4 0 9998
2 41340 31.0045 160.0578 0013662 140.9378 219.2246 15.01756447275947
OUFTI-1
1 41458U 16025C 21056.80064371 .00002689 00000-0 13306-3 0 9990
2 41458 98.1252 187.3320 0161382 76.4064 285.5079 15.08053100265645
e-st@r-II
1 41459U 16025D 21056.79324440 .00003080 00000-0 15313-3 0 9991
2 41459 98.1233 186.5091 0163329 79.0750 282.8787 15.07524585265594
AAUSAT4
1 41460U 16025E 21056.64215429 .00004321 00000-0 20531-3 0 9990
2 41460 98.1222 189.6868 0150160 65.2049 296.4723 15.10323661265831
LO-87
1 41557U 16033B 21056.83612750 .00002978 00000-0 10852-3 0 9996
2 41557 97.3938 151.4575 0011369 271.0255 213.7023 15.28930928264471
NuSat2
1 41558U 16033C 21056.85744856 .00003203 00000-0 10937-3 0 9998
2 41558 97.4022 154.7958 0010387 264.1435 214.1071 15.31013016264641
Lapan A3
1 41603U 16040E 21056.81722826 .00000253 00000-0 14808-4 0 9990
2 41603 97.2740 107.8872 0014609 40.6211 91.5754 15.19966213259620
Swayam
1 41607U 16040J 21056.40163909 .00003470 00000-0 14050-3 0 9992
2 41607 97.2843 115.4454 0013157 22.1314 338.0489 15.25258573259966
Pratham
1 41783U 16059A 21056.78780233 .00000102 00000-0 28900-4 0 9992
2 41783 97.9814 110.6284 0032459 236.7031 123.1061 14.63114625235928
AlSat 1N
1 41789U 16059G 21056.85894715 .00000090 00000-0 25931-4 0 9994
2 41789 97.9865 114.1213 0027249 221.7150 138.1965 14.64390893236113
ScatSat
1 41790U 16059H 21056.84428686 .00000012 00000-0 14381-4 0 9996
2 41790 98.3848 99.2445 0004316 210.4840 149.6091 14.50796654233969
TY-1
1 41844U 16066D 21056.82758697 .00001810 00000-0 74232-4 0 9998
2 41844 97.4026 68.2053 0015175 164.6929 298.5388 15.25450025238882
Pegasus-1
1 41846U 16066F 21056.10332377 .00000461 00000-0 79986-4 0 9996
2 41846 98.6269 114.3584 0366095 200.2577 158.3762 14.37948179225276
CAS-2T
1 41847U 16066G 21056.39377463 .00000227 00000-0 44515-4 0 9993
2 41847 98.6182 114.9786 0365273 194.6521 164.3852 14.38150390225776
EO-88
1 42017U 17008BX 21056.43875571 .00003758 00000-0 14206-3 0 9993
2 42017 97.3298 126.0188 0007278 136.1362 224.0456 15.27559730224157
CAS-4B
1 42759U 17034B 21056.45987454 .00000643 00000-0 52144-4 0 9995
2 42759 43.0174 76.7274 0009194 192.1204 314.1922 15.10084642204215
CAS-4A
1 42761U 17034D 21056.45695424 .00000646 00000-0 52209-4 0 9996
2 42761 43.0181 75.8732 0009518 192.7988 313.3621 15.10165671204219
UCLSat
1 42765U 17036A 21056.42377103 .00002911 00000-0 12156-3 0 9993
2 42765 97.2667 109.4629 0010252 205.2823 154.7915 15.24370492205103
NIUSat
1 42766U 17036B 21056.58917016 .00001959 00000-0 87630-4 0 9995
2 42766 97.2667 106.3754 0014510 203.6839 156.3732 15.22359576204190
LituanicaSAT 2
1 42768U 17036D 21056.79620590 .00004659 00000-0 18642-3 0 9994
2 42768 97.2736 110.3031 0013786 194.2959 165.7891 15.25471628204448
Aalto 1
1 42775U 17036L 21056.36330760 .00001749 00000-0 78578-4 0 9994
2 42775 97.2640 106.4535 0012921 203.1828 156.8828 15.22370810204146
URSA MAIOR
1 42776U 17036M 21056.58128612 .00001805 00000-0 80435-4 0 9998
2 42776 97.2653 107.0686 0012762 201.6809 158.3889 15.22608231204190
Max Valier Sat
1 42778U 17036P 21056.57656785 .00001836 00000-0 80335-4 0 9999
2 42778 97.2717 108.7833 0011378 202.9143 157.1588 15.23243462204254
Pegasus
1 42784U 17036V 21056.57066838 .00002411 00000-0 10233-3 0 9999
2 42784 97.2673 109.1854 0010816 206.7516 153.3165 15.23986591204315
NUDATSat
1 42787U 17036Y 21056.57950778 .00003626 00000-0 14496-3 0 9991
2 42787 97.2714 111.2486 0010037 199.7771 160.3084 15.25686115204272
SUCHAI 1
1 42788U 17036Z 21056.09946391 .00002792 00000-0 11567-3 0 9994
2 42788 97.2685 109.5779 0010356 205.5048 154.5681 15.24681290204368
SKCUBE
1 42789U 17036AA 21056.57009769 .00002706 00000-0 11290-3 0 9995
2 42789 97.2677 109.7976 0010301 204.2718 155.8036 15.24461486204340
VZLUSAT 1
1 42790U 17036AB 21055.39140918 .00003350 00000-0 13429-3 0 9990
2 42790 97.2712 110.0834 0009742 204.0410 156.0375 15.25654508204242
